Overview Statistics Trail Chart Weather Telemetry Raw packets
 

This is the latest recevied weather packets stored in our database for station/object K0QED. If no packets are shown the sender has not sent any weather packets the latest 10 day(s).

<< 27 28 29 30 31 32 33 >>
Time Temp. Humidity Pressure Rain* Wind** Luminosity Snow
1788437667 12.78° C 54% 1023.6 hPa 0 mm - 0 W/m² -
1788437364 13.33° C 55% 1023.4 hPa 0 mm - 0 W/m² -
1788437062 13.33° C 51% 1023.6 hPa 0 mm - 0 W/m² -
1788436761 12.78° C 51% 1023.4 hPa 0 mm - 0 W/m² -
1788436461 13.33° C 52% 1023.5 hPa 0 mm - 0 W/m² -
1788436161 13.33° C 51% 1023.2 hPa 0 mm - 0 W/m² -
1788435856 13.89° C 50% 1023.2 hPa 0 mm - 0 W/m² -
1788435552 13.89° C 49% 1023.5 hPa 0 mm - 0 W/m² -
1788435248 14.44° C 48% 1023.5 hPa 0 mm - 0 W/m² -
1788434943 14.44° C 48% 1023.6 hPa 0 mm - 0 W/m² -
1788434639 15° C 47% 1023.2 hPa 0 mm - 0 W/m² -
1788434338 15° C 46% 1023.5 hPa 0 mm - 0 W/m² -
1788434037 15° C 46% 1023.6 hPa 0 mm - 0 W/m² -
1788433734 15° C 47% 1023.4 hPa 0 mm - 0 W/m² -
1788433429 15° C 48% 1023.2 hPa 0 mm - 0 W/m² -
1788433124 14.44° C 49% 1023.4 hPa 0 mm - 0 W/m² -
1788432819 15° C 47% 1023.2 hPa 0 mm - 0 W/m² -
1788432518 15° C 47% 1023.2 hPa 0 mm - 0 W/m² -
1788432213 13.89° C 48% 1023.4 hPa 0 mm - 0 W/m² -
1788431910 13.89° C 51% 1023.4 hPa 0 mm - 0 W/m² -
1788431606 13.33° C 52% 1023.5 hPa 0 mm - 0 W/m² -
1788431301 12.78° C 52% 1023.5 hPa 0 mm - 0 W/m² -
1788430996 13.33° C 53% 1023.2 hPa 0 mm - 0 W/m² -
1788430695 12.78° C 53% 1023 hPa 0 mm - 0 W/m² -
1788430390 13.33° C 52% 1023.1 hPa 0 mm - 0 W/m² -

* Rain latest hour (hover to see other rain measurements)
** Current wind speed in m/s (hover to see current wind gust speed)